カタログに戻る

STARLINK-30495

運用中通信VLEO
NORAD 57968·PAYLOAD·🇺🇸 United States

打ち上げ Sep 30, 2023 から Cape Canaveral Space Force Station

Loading…

次のパス (今後24時間)

TLE

最新Source: CelesTrak SupGP

元期: Sep 14, 2026, 20:45 UTC

1 57968C 23151E   26257.86506944  .00000058  00000+0  21133-5 0  2575
2 57968  43.0034 347.6606 0001474 271.3041 250.0815 15.27582714    11

AllMySatでSTARLINK-30495をリアルタイム追跡

Download on the App Store